Content
SEND FEEDBACK

Daily
Averages
Monthly
Summary
United States of America

JEWELL, KANSAS


Home > North America > United States > Kansas
Elevation: 1560 feet     Latitude: 39 39N     Longitude: 098 09W

WEATHER
 
SELECT A DAY
Number of Records: 200,200;   Date Range: 1/1/95 - 8/30/14
 
SHARE

PRINT THIS DATA

[ ← Previous Day ]
WEATHER ALMANAC - FEBRUARY 5, 2013
[ Next Day → ]
[ °C ]   °F
Weather ElementAverageHighLow
Temperature39.9 °F55.9 °F (2:55 pm)26.1 °F (2:55 am)
Dewpoint28 °F33.1 °F (11:55 am)21.9 °F (2:55 am)
Humidity65.4 %89 % (4:55 am)38 % (3:55 pm)
Barometer30.01 in30.07 in (7:55 pm)29.89 in (3:55 am)
Wind Speed7.6 mph16.1 mph (1:55 pm)
Wind Gust17.3 mph (12:55 pm)
Weather ElementAverage
Visibility8.9 mi
Wind DirectionS (183.9 °)

Weather ElementTotal
Precipitation---
Heating Degree Days24 (Base 65)
Averaged from 23 records on February 5, 2013
WEATHER CONDITIONS BREAKOUT
WIND DIRECTION BREAKOUT
WEATHER BY HOUR - FEBRUARY 5, 2013
[ °C ]   °F
Local TimeTemperatureDewpointHumidityBarometerVisibilityWind DirectionWind SpeedGust SpeedPrecipitationEventsConditions
1:55 AM27.0 °F23.0 °F85 %29.92 in6.0 miCalmClear
2:55 AM26.1 °F21.9 °F84 %29.92 in5.0 miWSW (250°)3.5 mphClear
3:55 AM30.9 °F26.1 °F82 %29.89 in7.0 miSW (220°)9.2 mphClear
4:55 AM28.9 °F26.1 °F89 %29.92 in7.0 miWest (270°)5.8 mphClear
5:55 AM27.0 °F24.1 °F89 %29.93 in6.0 miWest (260°)8.1 mphClear
6:55 AM28.9 °F25.0 °F85 %29.94 in9.0 miWest (260°)9.2 mphClear
7:55 AM28.0 °F24.1 °F85 %29.97 in7.0 miWest (270°)9.2 mphClear
8:55 AM32.0 °F27.0 °F82 %30.00 in8.0 miWest (270°)10.4 mphClear
9:55 AM39.9 °F30.0 °F68 %30.01 in10.0 miWest (280°)8.1 mphClear
10:55 AM45.0 °F30.9 °F58 %30.04 in10.0 miWNW (290°)10.4 mphClear
11:55 AM51.1 °F33.1 °F50 %30.06 in10.0 miNNW (330°)15.0 mphClear
12:55 PM54.0 °F32.0 °F43 %30.03 in10.0 miNorth (360°)12.7 mph17.3 mphClear
1:55 PM55.0 °F32.0 °F42 %30.03 in10.0 miNorth (10°)16.1 mphClear
2:55 PM55.9 °F30.9 °F39 %30.02 in10.0 miNNE (30°)10.4 mphClear
3:55 PM55.0 °F30.0 °F38 %30.03 in10.0 miNorth (350°)6.9 mphClear
4:55 PM52.0 °F30.0 °F43 %30.02 in10.0 miNNE (30°)10.4 mphClear
5:55 PM46.9 °F30.0 °F52 %30.03 in10.0 miENE (70°)4.6 mphClear
6:55 PM42.1 °F28.9 °F60 %30.06 in10.0 miCalmClear
7:55 PM39.9 °F28.0 °F63 %30.07 in10.0 miSSE (150°)4.6 mphClear
8:55 PM39.0 °F28.0 °F65 %30.07 in10.0 miSE (140°)4.6 mphClear
9:55 PM39.0 °F28.0 °F65 %30.07 in10.0 miSE (130°)4.6 mphClear
10:55 PM37.0 °F27.0 °F67 %30.06 in10.0 miSE (130°)5.8 mphClear
11:55 PM36.0 °F27.0 °F70 %30.05 in10.0 miSE (130°)4.6 mphClear
Hourly data recorded from KCNK, located miles away from Jewell, Kansas







STORIES FROM OUR PARTNERS